Tracking 28790 objects as of 18-Apr-2024
HD Live streaming from Space Station
objects crossing your sky now

THORAD AGENA D DEB

Track THORAD AGENA D DEB now!
10-day predictions


NORAD ID: 4643
Int'l Code: 1970-025AB
Perigee: 1,053.1 km
Apogee: 1,070.6 km
Inclination: 99.5 °
Period: 106.3 minutes
Semi major axis: 7432 km
RCS: 0.1272 m2 (medium)
Launch date: April 8, 1970
Source: United States (US)
Launch site: AIR FORCE WESTERN TEST RANGE (AFWTR)

Note: This is SATELLITE DEBRIS
Your satellite tracking list
Your tracking list is empty




NASA's NSSDC Master Catalog

Two Line Element Set (TLE):
1  4643U 70025AB  24109.55236160  .00000358  00000-0  58252-3 0  9996
2  4643  99.4894 342.0693 0011777  55.3458  21.5245 13.54790337665325
Source of the keplerian elements: AFSPC